Regional Weather Roundup
Issued by NWS

Home | Current Version | Previous Version | Graphics & Text | Print | Product List | Glossary On
Versions: 1 2 3 4 5 6 7 8 9 10 11 12 13 14 15 16 17 18 19 20 21 22 23 24 25 26 27 28 29 30 31 32 33 34 35 36 37 38 39 40 41 42 43 44 45 46 47 48 49 50
000
ASUS45 KSLC 310910
RWRUT
UTAH REGIONAL WEATHER ROUNDUP
NATIONAL WEATHER SERVICE SALT LAKE CITY UT
300 AM MDT FRI JUL 31 2015

UTZ001>011-023>025-311000-

NORTHERN UTAH

CITY           SKY/WX    TMP DP  RH WIND       PRES   REMARKS
BRIGHAM CITY   CLEAR     64  36  36 W3        30.22F
HILL AFB       CLEAR     67  30  25 E16       30.24F
LOGAN          CLEAR     56  42  59 CALM      30.26S
OGDEN          CLEAR     67  31  26 S10       30.22F
PROVO AIRPORT  PTCLDY    57  36  44 CALM      30.25S
SALT LAKE CITY PTCLDY    66  37  34 S6        30.21F
VERNAL         PTCLDY    64  28  25 S3        30.27S
WENDOVER       PTCLDY    70  25  18 NW6       30.22F
HEBER CITY     PTCLDY    45  34  65 CALM      30.35S
WEST JORDAN    CLEAR     64  30  27 NW5       30.24F

$$

UTZ012>022-026-027-311000-

SOUTHERN/CENTRAL UTAH

CITY           SKY/WX    TMP DP  RH WIND       PRES   REMARKS
BLANDING       MOCLDY    66  54  66 SE15G21   30.46S
BRYCE CANYON   MOCLDY    59  42  53 W7        30.46S
CEDAR CITY     MOCLDY    72  33  24 SE7       30.28F
DELTA          PTCLDY    69  22  16 NE8       30.22S
HANKSVILLE     MOCLDY    64  27  24 CALM      30.21S
MILFORD        PTCLDY    62  20  19 SW5       30.23S
MOAB/CYNLANDS  CLEAR     74  33  22 SE15      30.18S
PRICE          PTCLDY    65  17  15 NE5       30.30S
ST GEORGE      MOSUNNY   82  48  30 SE7       30.10R
KANAB          MOCLDY    70  48  46 N6        30.31S

$$

REGIONAL REPORTS     COLORADO/ARIZONA

CITY           SKY/WX    TMP DP  RH WIND       PRES   REMARKS
CRAIG, CO      CLEAR     46  32  58 CALM      30.36S
GRAND JUNCTION CLEAR     63  27  25 E6        30.22S
RIFLE          CLEAR     59  29  31 CALM      30.31R
MONTROSE       PTCLDY    64  36  35 S6        30.33R
CORTEZ         PTCLDY    65  57  75 NW3       30.39S
PAGE, AZ       MOCLDY    81  53  37 S15G21    30.21R
GRAND CANYON   MOCLDY    64  50  60 NE5       30.39F
KINGMAN        PTCLDY    72  52  49 SE7       30.11F
FLAGSTAFF      PTCLDY    52  52 100 CALM      30.42F

$$

REGIONAL REPORTS    NEVADA/IDAHO/WYOMING

CITY           SKY/WX    TMP DP  RH WIND       PRES   REMARKS
LAS VEGAS, NV  CLOUDY    91  51  25 SE5       29.96R
ELY            MOCLDY    57  24  28 S10       30.35S
ELKO           CLEAR     56  34  43 CALM      30.27F
POCATELLO, ID  CLEAR     50  38  63 N6        30.26S
BURLEY         PTCLDY    54  42  64 CALM      30.21F
EVANSTON, WY   PTCLDY    59  22  24 S6        30.44F
ROCK SPRINGS   CLEAR     56  19  23 W12       30.40F
KEMMERER       CLEAR     52  28  40 N10       30.45F

$$


USA.gov is the U.S. government's official web portal to all federal, state and local government web resources and services.